Riverside, CA

5:24 PM PDT on September 30, 2016 (GMT -0700)
March Air Reserve Base

Weather History for KRIV - September, 2013

Change the Weather History Date:

Monday, September 9, 2013

  Actual Average Record
Temperature  
Mean Temperature 81 °F -  
Max Temperature 91 °F 89 °F 103 °F (2015)
Min Temperature 68 °F 60 °F 53 °F (2000)
Cooling Degree Days 16    
Growing Degree Days 31 (Base 50)    
Moisture  
Dew Point 48 °F    
Average Humidity 35    
Maximum Humidity 51    
Minimum Humidity 22    
Precipitation  
Precipitation 0.00 in - - ()
Sea Level Pressure  
Sea Level Pressure 29.77 in    
Wind  
Wind Speed 6 mph (WNW)    
Max Wind Speed 16 mph    
Max Gust Speed 21 mph    
Visibility 10 miles    
Events      
Averages and records for this station are not official NWS values.
T = Trace of Precipitation, MM = Missing Value Source: NWS Daily Summary

Daily Weather History Graph

Daily Weather History Graph

Search for Another Location

Airport or City:

Trip Planner

Search our weather history database for the weather conditions in past years. The results will help you decide how hot, cold, wet, or windy it might be!

Date:

Astronomy

Sep. 09, 2013 Rise Set
Actual Time 6:28 AM PDT 7:03 PM PDT
Civil Twilight 6:03 AM PDT 7:28 PM PDT
Nautical Twilight 5:33 AM PDT 7:58 PM PDT
Astronomical Twilight 5:03 AM PDT 8:28 PM PDT
Moon 10:40 AM PDT (9/9) 9:38 PM PDT (9/9)
Length of Visible Light 13h 25m
Length of Day
12h 34m
Waxing Crescent, 20% of the Moon is Illuminated
Sep 9
Waxing Crescent
Sep 12
First Quarter
Sep 19
Full
Sep 26
Last Quarter
Oct 4
New

Hourly Weather History & Observations

Time (PDT) Temp. Dew Point Humidity Pressure Visibility Wind Dir Wind Speed Gust Speed Precip Events Conditions
12:58 AM 74.5 °F 49.6 °F 42% 29.79 in 10.0 mi SSW 2.3 mph - N/A   Mostly Cloudy
1:58 AM 74.3 °F 45.3 °F 36% 29.75 in 10.0 mi South 4.6 mph - N/A   Partly Cloudy
2:58 AM 75.7 °F 48.6 °F 38% 29.75 in 10.0 mi ESE 4.6 mph - N/A   Partly Cloudy
3:58 AM 74.3 °F 48.4 °F 40% 29.76 in 10.0 mi NNW 8.1 mph - N/A   Overcast
4:58 AM 72.0 °F 47.5 °F 42% 29.75 in 10.0 mi West 3.5 mph - N/A   Partly Cloudy
5:58 AM 71.8 °F 49.8 °F 46% 29.78 in 10.0 mi WNW 4.6 mph - N/A   Mostly Cloudy
6:58 AM 72.0 °F 48.6 °F 43% 29.78 in 10.0 mi NW 1.2 mph - N/A   Mostly Cloudy
7:58 AM 74.5 °F 46.4 °F 37% 29.79 in 10.0 mi Calm Calm - N/A   Clear
8:58 AM 77.0 °F 48.7 °F 37% 29.80 in 10.0 mi Variable 1.2 mph - N/A   Mostly Cloudy
9:58 AM 81.3 °F 49.3 °F 33% 29.80 in 10.0 mi ESE 2.3 mph - N/A   Mostly Cloudy
10:58 AM 85.8 °F 49.1 °F 28% 29.79 in 10.0 mi Calm Calm - N/A   Mostly Cloudy
11:58 AM 86.4 °F 47.8 °F 26% 29.78 in 10.0 mi WNW 8.1 mph - N/A   Mostly Cloudy
12:58 PM 89.1 °F 45.9 °F 22% 29.75 in 10.0 mi NW 9.2 mph - N/A   Mostly Cloudy
1:58 PM 91.6 °F 49.5 °F 24% 29.73 in 10.0 mi NW 15.0 mph - N/A   Scattered Clouds
2:58 PM 89.6 °F 49.8 °F 25% 29.72 in 10.0 mi NW 12.7 mph 20.7 mph N/A   Clear
3:58 PM 88.7 °F 46.9 °F 24% 29.71 in 10.0 mi NW 16.1 mph - N/A   Clear
4:58 PM 86.2 °F 46.8 °F 25% 29.72 in 10.0 mi NW 16.1 mph - N/A   Clear
5:58 PM 83.5 °F 43.7 °F 25% 29.75 in 10.0 mi NNW 15.0 mph - N/A   Clear
6:58 PM 79.3 °F 45.3 °F 30% 29.76 in 10.0 mi WNW 9.2 mph - N/A   Clear
7:58 PM 75.4 °F 43.5 °F 32% 29.75 in 10.0 mi NW 16.1 mph - N/A   Partly Cloudy
8:58 PM 74.3 °F 45.3 °F 36% 29.79 in 10.0 mi NNW 5.8 mph - N/A   Clear
9:58 PM 72.5 °F 49.5 °F 44% 29.79 in 10.0 mi SSW 5.8 mph - N/A   Mostly Cloudy
10:58 PM 72.0 °F 50.5 °F 47% 29.79 in 10.0 mi North 4.6 mph - N/A   Clear
11:58 PM 68.4 °F 49.5 °F 51% 29.79 in 10.0 mi Calm Calm - N/A   Clear